Belvidere, Illinois, United States (61008)
Lat: 42.26N, Lon: 88.84W
Wx Zone: ILZ004
Local Info
Past Weather Observations for Tuesday, September 16, 2014

NOTE: This archive is for the closest National Weather Service station to Belvidere. Information may differ from the station used for current weather conditions.

Click here for Long-term Archive

Time Weather Temperature Dewpoint Humidity Pressure Winds Precip Visibility
23:54
Clear
Fog
45°F / 7°C 41°F / 5°C 87% 30.09 in
(1019 mb)
S 3.5 mph
(S 6 kph)
- 10SM
22:54
Clear
46°F / 8°C 43°F / 6°C 87% 30.12 in
(1020 mb)
Calm - 10SM
21:54
Clear
48°F / 9°C 45°F / 7°C 87% 30.12 in
(1020 mb)
Calm - 10SM
20:54
Clear
50°F / 10°C 45°F / 7°C 82% 30.12 in
(1020 mb)
Calm - 10SM
19:54
Clear
54°F / 12°C 46°F / 8°C 77% 30.12 in
(1020 mb)
Calm - 10SM
18:54
Clear
55°F / 13°C 46°F / 8°C 72% 30.12 in
(1020 mb)
Calm - 10SM
17:54
Clear
61°F / 16°C 43°F / 6°C 52% 30.12 in
(1020 mb)
W 3.5 mph
(W 6 kph)
- 10SM
16:54
Clear
66°F / 19°C 41°F / 5°C 40% 30.12 in
(1020 mb)
NW 4.6 mph
(NW 7 kph)
- 10SM
15:54
Clear
66°F / 19°C 41°F / 5°C 40% 30.12 in
(1020 mb)
NW 4.6 mph
(NW 7 kph)
- 10SM
14:54
Clear
64°F / 18°C 41°F / 5°C 43% 30.12 in
(1020 mb)
SSW 6.9 mph
(SSW 11 kph)
- 10SM
13:54
Clear
64°F / 18°C 39°F / 4°C 40% 30.15 in
(1021 mb)
SSW 5.8 mph
(SSW 9 kph)
- 10SM
12:54
Partly Cloudy
64°F / 18°C 39°F / 4°C 40% 30.18 in
(1022 mb)
NW 6.9 mph
(NW 11 kph)
- 10SM
11:54
Partly Cloudy
63°F / 17°C 37°F / 3°C 39% 30.21 in
(1023 mb)
Variable 6.9 mph
(Variable 11 kph)
- 10SM
10:54
Partly Cloudy
63°F / 17°C 41°F / 5°C 45% 30.21 in
(1023 mb)
WNW 8.1 mph
(WNW 13 kph)
- 10SM
09:54
Partly Cloudy
61°F / 16°C 43°F / 6°C 52% 30.24 in
(1024 mb)
N 6.9 mph
(N 11 kph)
- 10SM
08:54
Clear
55°F / 13°C 46°F / 8°C 72% 30.24 in
(1024 mb)
Calm - 10SM
07:54
Clear
52°F / 11°C 45°F / 7°C 77% 30.24 in
(1024 mb)
Calm - 10SM
06:54
Clear
43°F / 6°C 41°F / 5°C 93% 30.24 in
(1024 mb)
Calm - 10SM
05:54
Clear
Fog
39°F / 4°C 37°F / 3°C 93% 30.24 in
(1024 mb)
S 3.5 mph
(S 6 kph)
- 10SM
04:54
Clear
Fog
43°F / 6°C 39°F / 4°C 87% 30.24 in
(1024 mb)
Calm - 10SM
03:54
Clear
43°F / 6°C 39°F / 4°C 87% 30.24 in
(1024 mb)
N 4.6 mph
(N 7 kph)
- 10SM
02:54
Clear
43°F / 6°C 39°F / 4°C 87% 30.24 in
(1024 mb)
Calm - 10SM
01:54
Clear
45°F / 7°C 43°F / 6°C 93% 30.21 in
(1023 mb)
N 3.5 mph
(N 6 kph)
- 10SM
00:54
Clear
Fog
45°F / 7°C 43°F / 6°C 93% 30.21 in
(1023 mb)
Calm - 10SM
Time Weather Temperature Dewpoint Humidity Pressure Winds Precip Visibility


Weather for websites

WeatherForYou.com, LLC is not responsible for any damages or problems caused by this service. Current weather conditions are obtained from the closest station including government and personal stations which may have varying degrees of accuracy. Weather forecasts are derived from the NOAA NDFD. Like all things, this site belongs to Jesus Christ... He just trusts me to maintain it. If you have any questions or comments email webmaster@weatherforyou.com

Copyright © 2014, WeatherForYou.com LLC. All rights reserved.